Theta_e
324 324 321 321 321 323 321 321 320 318 318 318 318 318 316 314 313 311 309 308 308 308
317 317 317 316 316 317 316 313 317 319 318 317 315 314 314 313 311 310 309 309 309 308
313 314 315 316 314 314 313 312 312 312 313 313 314 314 314 312 311 310 309 308 307 307
306 307 307 306 306 306 307 306 306 306 307 307 308 309 309 310 308 306 306 307 306 305
301 301 301 300 300 301 301 302 301 301 302 302 303 304 304 304 305 304 302 302 302 302
298 298 297 297 297 297 298 298 298 298 297 297 298 298 299 298 298 299 300 300 299 299
295 295 295 295 295 295 295 295 295 295 294 294 294 294 293 292 293 294 295 296 296 296
294 293 293 293 293 293 292 292 292 291 291 291 292 289 290 290 291 291 291 291 292 292
292 291 291 291 290 290 290 290 290 290 289 289 288 290 290 290 290 290 289 289 290 291
289 288 289 289 288 288 289 289 288 289 288 288 289 290 290 289 287 288 289 289 288 288
287 286 287 287 287 287 287 287 286 287 287 287 287 289 289 288 287 288 288 288 288 287
285 284 284 283 284 285 285 285 285 285 285 285 285 288 288 287 286 286 286 287 287 287
283 282 282 283 283 284 284 284 284 284 285 284 284 286 287 287 286 284 285 286 286 286
281 280 281 282 282 282 282 282 282 282 284 284 284 285 287 287 284 284 283 283 283 284
Wind_Speed
2 3 3 4 3 3 2 2 2 2 2 3 4 5 5 5 6 7 7 10 8 7
5 5 4 4 3 2 2 2 1 3 2 2 1 2 2 3 4 6 6 8 8 8
5 5 5 4 5 5 4 4 4 3 2 2 3 4 5 3 3 5 5 5 7 8
8 8 8 7 7 6 6 6 6 5 5 5 5 5 5 5 6 9 9 8 7 9
8 8 8 8 8 7 6 6 6 6 5 5 6 6 6 6 6 7 9 10 10 11
9 8 8 8 7 7 7 7 6 6 6 6 6 6 6 7 7 7 8 8 8 9
8 7 7 7 7 7 7 7 7 7 5 4 4 4 5 4 7 8 8 9 10 11
7 7 7 7 6 5 5 5 5 5 5 5 4 3 5 5 6 9 9 8 10 11
6 5 6 5 4 4 4 4 3 4 4 4 3 6 9 8 6 7 8 11 10 11
5 5 4 3 4 5 5 4 4 4 5 6 5 9 12 11 6 7 8 10 9 11
6 5 6 6 5 5 5 6 6 6 5 6 7 12 14 13 7 7 10 10 11 13
6 6 7 6 7 6 6 6 5 5 8 7 8 12 14 13 7 9 11 11 10 11
5 4 5 6 6 5 5 7 6 8 7 8 10 12 13 11 6 11 10 11 11 14
6 6 5 6 5 5 7 7 7 8 8 8 8 7 12 14 9 9 10 11 10 10
Wind_Direction
23 35 59 53 46 58 61 116 105 161 191 216 206 206 201 212 211 211 216 222 219 228
76 75 85 79 77 88 103 78 179 158 164 203 231 243 238 219 213 208 220 226 230 231
97 103 112 105 84 74 63 55 46 38 15 332 285 268 270 267 254 243 235 232 232 235
69 71 69 70 60 50 48 31 33 24 8 352 339 326 310 291 290 292 289 279 265 268
65 59 65 63 53 41 42 38 30 24 16 4 349 343 331 317 310 296 293 291 290 283
56 56 54 53 53 48 40 36 29 30 25 10 357 345 343 334 313 297 288 288 282 281
59 56 50 39 40 42 30 29 18 20 7 1 349 341 342 317 312 303 295 290 288 289
59 49 44 34 20 33 29 20 7 350 350 343 340 351 332 318 309 301 298 290 290 287
54 48 39 22 356 13 13 10 344 331 328 318 315 308 322 314 301 296 293 297 292 290
40 42 28 358 2 5 357 336 328 328 332 324 318 319 320 315 295 284 284 291 296 299
22 18 4 3 1 353 345 337 328 319 315 308 306 313 314 312 296 288 291 290 292 292
15 1 356 354 347 340 330 321 307 299 301 294 292 303 309 315 306 300 300 298 294 295
358 345 332 328 323 313 297 294 300 298 292 284 289 300 306 313 302 304 306 304 303 298
336 323 309 306 304 304 307 302 297 299 303 296 282 283 305 316 314 308 308 306 307 307